TimeMDT,TemperatureF,Dew PointF,Humidity,Sea Level PressureIn,VisibilityMPH,Wind Direction,Wind SpeedMPH,Gust SpeedMPH,PrecipitationIn,Events,Conditions,WindDirDegrees,DateUTC
12:15 AM,67.3,56.7,69,30.19,10.0,SSE,9.2,-,N/A,,Clear,160,2013-07-16 06:15:00
12:35 AM,66.6,57.0,71,30.20,10.0,SSE,6.9,-,N/A,,Clear,150,2013-07-16 06:35:00
12:55 AM,66.2,57.2,73,30.19,10.0,SSE,6.9,-,N/A,,Clear,150,2013-07-16 06:55:00
1:15 AM,65.8,57.7,75,30.18,10.0,SSE,8.1,-,N/A,,Clear,160,2013-07-16 07:15:00
1:35 AM,65.7,58.1,77,30.18,10.0,South,8.1,-,N/A,,Clear,170,2013-07-16 07:35:00
1:55 AM,64.9,58.1,78,30.18,10.0,SSE,9.2,-,N/A,,Clear,160,2013-07-16 07:55:00
2:15 AM,64.4,58.1,80,30.18,10.0,SSE,11.5,16.1,N/A,,Clear,160,2013-07-16 08:15:00
2:35 AM,63.9,58.5,83,30.18,10.0,SSE,10.4,-,N/A,,Clear,160,2013-07-16 08:35:00
2:55 AM,63.0,58.5,85,30.18,10.0,SE,5.8,-,N/A,,Clear,140,2013-07-16 08:55:00
3:15 AM,62.6,58.5,86,30.19,10.0,SSE,3.5,-,N/A,,Clear,150,2013-07-16 09:15:00
3:35 AM,62.4,58.6,87,30.18,10.0,Calm,Calm,-,N/A,,Clear,0,2013-07-16 09:35:00
3:55 AM,61.9,58.8,90,30.18,10.0,Calm,Calm,-,N/A,,Clear,0,2013-07-16 09:55:00
4:15 AM,61.9,59.0,90,30.18,10.0,Calm,Calm,-,N/A,,Clear,0,2013-07-16 10:15:00
4:35 AM,61.7,59.0,91,30.18,10.0,Calm,Calm,-,N/A,,Clear,0,2013-07-16 10:35:00
4:55 AM,61.5,59.0,91,30.18,7.0,Calm,Calm,-,N/A,,Clear,0,2013-07-16 10:55:00
5:15 AM,61.5,59.2,92,30.19,7.0,Calm,Calm,-,N/A,,Mostly Cloudy,0,2013-07-16 11:15:00
5:35 AM,62.2,59.4,90,30.20,7.0,Calm,Calm,-,N/A,,Overcast,0,2013-07-16 11:35:00
5:55 AM,63.0,59.9,90,30.20,7.0,Calm,Calm,-,N/A,,Overcast,0,2013-07-16 11:55:00
6:15 AM,63.5,60.1,89,30.20,7.0,SSE,3.5,-,N/A,,Mostly Cloudy,150,2013-07-16 12:15:00
6:35 AM,63.9,60.4,89,30.21,10.0,SSE,5.8,-,N/A,,Clear,150,2013-07-16 12:35:00
6:55 AM,64.4,60.8,88,30.22,10.0,SSE,6.9,-,N/A,,Clear,160,2013-07-16 12:55:00
7:15 AM,65.7,61.2,85,30.22,10.0,South,8.1,-,N/A,,Mostly Cloudy,170,2013-07-16 13:15:00
7:35 AM,66.2,61.0,83,30.22,10.0,SSE,10.4,-,N/A,,Overcast,160,2013-07-16 13:35:00
7:55 AM,67.6,60.6,78,30.22,10.0,SSE,9.2,-,N/A,,Scattered Clouds,160,2013-07-16 13:55:00
8:15 AM,68.5,60.4,75,30.23,10.0,South,10.4,-,N/A,,Mostly Cloudy,170,2013-07-16 14:15:00
8:35 AM,68.0,60.3,76,30.23,10.0,South,13.8,-,N/A,,Overcast,170,2013-07-16 14:35:00
8:55 AM,68.9,60.3,74,30.23,10.0,SSE,12.7,-,N/A,,Overcast,160,2013-07-16 14:55:00
9:15 AM,69.8,60.3,72,30.23,10.0,South,13.8,18.4,N/A,,Overcast,170,2013-07-16 15:15:00
9:55 AM,72.3,60.4,66,30.23,10.0,South,13.8,19.6,N/A,,Mostly Cloudy,170,2013-07-16 15:55:00
10:15 AM,73.4,60.1,63,30.23,10.0,South,11.5,-,N/A,,Mostly Cloudy,170,2013-07-16 16:15:00
10:35 AM,72.5,59.7,64,30.24,10.0,South,10.4,-,N/A,,Overcast,170,2013-07-16 16:35:00
10:55 AM,73.2,60.1,63,30.24,10.0,South,10.4,-,N/A,,Overcast,170,2013-07-16 16:55:00
11:15 AM,75.6,58.5,55,30.24,10.0,South,12.7,-,N/A,,Overcast,170,2013-07-16 17:15:00
11:35 AM,75.7,58.6,55,30.24,10.0,South,15.0,-,N/A,,Overcast,190,2013-07-16 17:35:00
11:55 AM,76.5,60.3,57,30.23,10.0,SSW,8.1,16.1,N/A,,Mostly Cloudy,200,2013-07-16 17:55:00
12:15 PM,78.1,59.7,53,30.23,10.0,South,12.7,18.4,N/A,,Scattered Clouds,170,2013-07-16 18:15:00
12:35 PM,77.0,59.4,54,30.23,10.0,SSW,8.1,-,N/A,,Mostly Cloudy,210,2013-07-16 18:35:00
12:55 PM,78.6,58.5,50,30.23,10.0,SSE,12.7,19.6,N/A,,Mostly Cloudy,160,2013-07-16 18:55:00
1:15 PM,79.0,58.6,50,30.22,10.0,South,13.8,17.3,N/A,,Mostly Cloudy,180,2013-07-16 19:15:00
1:35 PM,81.3,58.1,45,30.22,10.0,South,15.0,20.7,N/A,,Mostly Cloudy,170,2013-07-16 19:35:00
2:55 PM,83.8,54.9,37,30.22,10.0,South,9.2,18.4,N/A,,Scattered Clouds,180,2013-07-16 20:55:00
3:15 PM,82.4,55.6,40,30.22,10.0,South,15.0,27.6,N/A,,Mostly Cloudy,190,2013-07-16 21:15:00
3:35 PM,83.3,54.7,37,30.22,10.0,South,16.1,-,N/A,,Mostly Cloudy,170,2013-07-16 21:35:00
3:55 PM,82.9,55.2,38,30.21,10.0,South,12.7,19.6,N/A,,Mostly Cloudy,170,2013-07-16 21:55:00
4:15 PM,84.0,55.4,37,30.21,10.0,South,13.8,-,N/A,,Scattered Clouds,170,2013-07-16 22:15:00
4:35 PM,85.5,54.7,35,30.21,10.0,South,12.7,18.4,N/A,,Mostly Cloudy,170,2013-07-16 22:35:00
4:55 PM,83.7,55.8,38,30.21,10.0,SSE,12.7,-,N/A,,Mostly Cloudy,150,2013-07-16 22:55:00
5:15 PM,84.7,55.9,37,30.21,10.0,South,15.0,19.6,N/A,,Mostly Cloudy,180,2013-07-16 23:15:00
5:35 PM,82.4,58.3,44,30.21,10.0,SSE,12.7,20.7,N/A,,Mostly Cloudy,160,2013-07-16 23:35:00
5:55 PM,81.1,59.0,47,30.21,10.0,South,20.7,-,N/A,,Scattered Clouds,170,2013-07-16 23:55:00
6:15 PM,81.5,59.7,47,30.21,10.0,South,18.4,23.0,N/A,,Scattered Clouds,170,2013-07-17 00:15:00
6:35 PM,81.3,59.0,46,30.21,10.0,South,13.8,23.0,N/A,,Scattered Clouds,170,2013-07-17 00:35:00
6:55 PM,80.6,59.0,48,30.21,10.0,SSE,15.0,24.2,N/A,,Scattered Clouds,150,2013-07-17 00:55:00
7:15 PM,79.9,58.6,48,30.22,10.0,South,13.8,23.0,N/A,,Clear,170,2013-07-17 01:15:00
7:35 PM,78.8,59.0,51,30.22,10.0,South,16.1,21.9,N/A,,Clear,170,2013-07-17 01:35:00
7:55 PM,77.2,59.9,55,30.22,10.0,SSE,8.1,-,N/A,,Clear,160,2013-07-17 01:55:00
8:15 PM,75.9,60.1,58,30.23,10.0,SSE,10.4,-,N/A,,Clear,160,2013-07-17 02:15:00
8:35 PM,75.0,60.1,60,30.23,10.0,SSE,9.2,-,N/A,,Clear,150,2013-07-17 02:35:00
8:55 PM,73.9,60.3,62,30.24,10.0,SSE,8.1,-,N/A,,Clear,150,2013-07-17 02:55:00
9:15 PM,72.7,60.8,66,30.25,10.0,SSE,5.8,-,N/A,,Clear,150,2013-07-17 03:15:00
9:35 PM,72.5,60.3,65,30.27,10.0,SSE,12.7,17.3,N/A,,Clear,160,2013-07-17 03:35:00
9:55 PM,72.1,60.4,67,30.27,10.0,South,11.5,-,N/A,,Clear,170,2013-07-17 03:55:00
10:15 PM,71.1,60.8,70,30.28,10.0,South,10.4,-,N/A,,Clear,170,2013-07-17 04:15:00
10:35 PM,70.2,61.2,73,30.28,10.0,South,8.1,-,N/A,,Clear,170,2013-07-17 04:35:00
10:55 PM,69.3,61.7,77,30.29,10.0,South,6.9,-,N/A,,Clear,170,2013-07-17 04:55:00
11:15 PM,68.4,61.7,79,30.29,10.0,South,8.1,-,N/A,,Clear,170,2013-07-17 05:15:00
11:35 PM,67.8,61.7,81,30.30,10.0,South,6.9,-,N/A,,Clear,170,2013-07-17 05:35:00